Regional Weather Roundup
Issued by NWS State College, PA

Home | Current Version | Previous Version | Text Only | Print | Product List | Glossary On
Versions: 1 2 3 4 5 6 7 8 9 10 11 12 13 14 15 16 17 18 19 20 21 22 23 24 25 26 27 28 29 30 31 32 33 34 35 36 37 38 39 40 41 42 43 44 45 46 47 48 49 50
000
ASUS41 KCTP 271110
RWRCTP

REGIONAL WEATHER ROUNDUP
NATIONAL WEATHER SERVICE STATE COLLEGE PA
600 AM EST FRI FEB 27 2015

Note: "fair" indicates few or no clouds below 12,000 feet with no
significant weather and/or obstructions to visibility.

* = STATION THAT DOES NOT REPORT PRECIPITATION /E.G. RAIN...SNOW...ETC/
    THUNDER OR FOG.

PAZ002>004-007>009-013>016-020>023-029>032-271200-
WESTERN PENNSYLVANIA

CITY           SKY/WX    TMP DP  RH WIND       PRES   REMARKS
ERIE           PTCLDY    -5 -10  79 S3        30.41R
MEADVILLE        N/A     -3  -8  79 NW3       30.32R
FRANKLIN*      PTCLDY    -2  -8  78 W3        30.31R
NEW CASTLE     FAIR      -2  -5  87 CALM      30.39R
BEAVER COUNTY  NOT AVBL
BUTLER*        CLEAR      0  -2  92 CALM      30.35R
PITTSBURGH INT FLURRIES   4   1  88 NW7       30.35R WCI  -8
PITTSBURGH     MOCLDY     4  -2  76 NW6       30.34R HAZE    WCI  -7
INDIANA*       CLOUDY     7   3  85 CALM      30.34R
LATROBE        MOCLDY     7   3  85 CALM      30.36R
WASHINGTON CO* CLOUDY     7   1  78 CALM      30.36R
$$

PAZ004>006-010>012-017>019-024>028-033>037-041-042-045-046-049>053-271200-
CENTRAL PENNSYLVANIA

CITY           SKY/WX    TMP DP  RH WIND       PRES   REMARKS
BRADFORD       PTCLDY    -6 -12  75 CALM      30.20R
DUBOIS         CLEAR      1  -3  83 W5        30.23R WCI  -9
CLEARFIELD     CLOUDY     5   0  79 CALM      30.26R
JOHNSTOWN      LGT SNOW   5   1  83 NW7       30.18R FOG     WCI  -7
ALTOONA        CLOUDY     9   1  70 NW9       30.26R WCI  -4
STATE COLLEGE  LGT SNOW  12   9  85 CALM      30.27R
WILLIAMSPORT   PTCLDY    12   1  61 NW3       30.34R
SELINSGROVE    CLOUDY    14   4  64 N7        30.34R WCI   4
FT INDIANTOWN  CLOUDY    16   7  66 NE5       30.30R WCI   9
CAPITAL CITY   CLOUDY    18   8  65 N8        30.31R WCI   8
HARRISBURG     FLURRIES  20  11  68 NW9       30.31R WCI   9
YORK           CLOUDY    20  14  77 N6        30.29R WCI  12
$$

PAZ038>040-043-044-047-048-054-055-060>062-067>071-271200-
EASTERN PENNSYLVANIA

CITY           SKY/WX    TMP DP  RH WIND       PRES   REMARKS
SCRANTON       CLOUDY     9   0  67 N7        30.28R WCI  -2
MOUNT POCONO   CLEAR      4  -1  80 NW9       30.14R WCI -10
ALLENTOWN      CLOUDY    16   4  59 NW7       30.30R WCI   6
QUAKERTOWN*    CLOUDY    18  10  73 N5        30.29R WCI  11
READING        CLOUDY    18   6  59 N9        30.30R WCI   7
LANCASTER      LGT SNOW  20  13  74 N7        30.29R WCI  11
COATESVILLE    LGT SNOW  21  18  86 N5        30.26R WCI  15
POTTSTOWN      CLOUDY    19   8  62 N8        30.31R WCI   9
BLUE BELL      CLOUDY    23  16  74 N3        30.29R
DOYLESTOWN     CLOUDY    18  10  71 N6        30.28R WCI  10
WILLOW GROVE   NOT AVBL
NORTH PHILA    CLOUDY    23  11  60 N9        30.32R WCI  13
PHILADELPHIA   LGT SNOW  24  15  68 N9        30.31R WCI  14
$$



USA.gov is the U.S. government's official web portal to all federal, state and local government web resources and services.